Torna al catalogo

STARLINK-37329

AttivoComunicazioniVLEO
NORAD 69155·PAYLOAD·🇺🇸 United States

Lanciato May 21, 2026 da Cape Canaveral Space Force Station

Loading…

Prossimi Passaggi (prossime 24 ore)

TLE

AggiornatoSource: CelesTrak SupGP

Epoca: Sep 14, 2026, 22:44 UTC

1 69155C 26111H   26257.94770833  .00021645  00000+0  63965-3 0  2576
2 69155  53.1580  91.8814 0001204  81.5363 271.0511 15.34372497    17

Traccia STARLINK-37329 in tempo reale con AllMySat

Download on the App Store